NULL Weather Reports


time (UTC)temp
C
wind
direction
speed
KPH
gust
KPH
rain 1hr
cm
rain 24hr
cm
rain mn
cm
humidity
%
barometer
mb
20260502181548 15 349 9.7 17.7 0.00 0.00 0.00 34 1022.7
20260502181532 17 157 0.0 0.0 0.00 0.00 0.00 87 1013.6
20260502163047 13 35 1.6 17.7 0.00 0.00 0.00 35 1023.5
20260502163035 16 156 0.0 0.0 0.00 0.00 0.00 91 1014.4
20260502161554 13 297 4.8 14.5 0.00 0.00 0.00 37 1023.5
20260502161527 16 164 0.0 0.0 0.00 0.00 0.00 91 1014.3
20260502151527 12 354 4.8 14.5 0.00 0.00 0.00 47 1023.6
20260502151521 15 170 0.0 0.0 0.00 0.00 0.00 92 1014.1
20260502123009 15 179 0.0 0.0 0.00 0.00 0.00 89 1013.3
20260502121509 15 182 0.0 0.0 0.00 0.00 0.00 89 1013.0
20260502121506 3 320 3.2 8.0 0.00 0.00 0.00 78 1022.9
20260502114507 15 182 0.0 0.0 0.00 0.00 0.00 89 1012.8
20260502114504 2 359 0.0 1.6 0.00 0.00 0.00 83 1022.6
20260502113006 15 182 0.0 0.0 0.00 0.00 0.00 89 1012.7
20260502113001 2 359 0.0 0.0 0.00 0.00 0.00 82 1022.3
20260502111558 2 359 0.0 0.0 0.00 0.00 0.00 82 1022.1
20260502111505 15 192 0.0 0.0 0.00 0.00 0.00 89 1012.8
20260502110058 2 359 0.0 1.6 0.00 0.00 0.00 82 1022.0
20260502110005 15 197 0.0 0.0 0.00 0.00 0.00 89 1012.8
20260502104556 3 359 0.0 0.0 0.00 0.00 0.00 81 1022.0
20260502104504 15 197 0.0 0.0 0.00 0.00 0.00 89 1012.6
20260502103054 3 359 0.0 0.0 0.00 0.00 0.00 81 1021.8
20260502103010 15 197 0.0 0.0 0.00 0.00 0.00 89 1012.6
20260502101553 3 335 0.0 0.0 0.00 0.00 0.00 80 1021.8
20260502101502 15 197 0.0 0.0 0.00 0.00 0.00 89 1012.4
20260502071527 6 332 0.0 1.6 0.00 0.00 0.00 64 1021.2
20260502070043 16 197 0.0 0.0 0.00 0.00 0.00 87 1013.4
20260502070023 7 332 0.0 6.4 0.00 0.00 0.00 56 1021.4
20260502064544 16 197 0.0 0.0 0.00 0.00 0.00 87 1013.4
20260502064521 7 305 1.6 8.0 0.00 0.00 0.00 53 1021.4
20260502063053 16 197 0.0 0.0 0.00 0.00 0.00 86 1013.2
20260502063021 8 281 3.2 8.0 0.00 0.00 0.00 54 1021.4
20260502061542 16 197 0.0 0.0 0.00 0.00 0.00 86 1013.3
20260502061520 7 310 3.2 6.4 0.00 0.00 0.00 55 1021.4
20260502060043 16 197 0.0 0.0 0.00 0.00 0.00 86 1013.2
20260502060019 7 303 1.6 4.8 0.00 0.00 0.00 57 1021.4
20260502054540 16 197 0.0 0.0 0.00 0.00 0.00 86 1013.3
20260502054513 8 335 0.0 3.2 0.00 0.00 0.00 54 1021.4
20260502053042 16 197 0.0 0.0 0.00 0.00 0.00 85 1013.4
20260502053010 8 33 0.0 4.8 0.00 0.00 0.00 51 1021.3
20260502051539 16 197 0.0 0.0 0.00 0.00 0.00 85 1013.4
20260502051508 9 337 0.0 8.0 0.00 0.00 0.00 51 1021.3
20260502050039 17 197 0.0 0.0 0.00 0.00 0.00 84 1013.4
20260502050004 10 330 3.2 9.7 0.00 0.00 0.00 48 1021.3
20260502044537 17 197 0.0 0.0 0.00 0.00 0.00 84 1013.3
20260502044505 10 347 1.6 8.0 0.00 0.00 0.00 48 1021.2
20260502043038 17 197 0.0 0.0 0.00 0.00 0.00 84 1013.2
20260502043004 10 337 3.2 8.0 0.00 0.00 0.00 47 1021.0
20260502041538 17 197 0.0 0.0 0.00 0.00 0.00 84 1013.0
20260502041503 10 326 4.8 12.9 0.00 0.00 0.00 46 1021.1
20260502040037 17 197 0.0 0.0 0.00 0.00 0.00 83 1012.6
20260502040003 11 343 4.8 9.7 0.00 0.00 0.00 45 1021.0
20260502034536 17 197 0.0 0.0 0.00 0.00 0.00 81 1012.5
20260502034503 11 324 8.0 14.5 0.00 0.00 0.00 45 1020.9
20260502033043 18 197 0.0 0.0 0.00 0.00 0.00 80 1012.3
20260502033001 11 325 3.2 6.4 0.00 0.00 0.00 45 1020.7
20260502031535 18 195 0.0 0.0 0.00 0.00 0.00 79 1012.1
20260502031501 12 316 1.6 6.4 0.00 0.00 0.00 43 1020.5
20260502030035 18 195 0.0 0.0 0.00 0.00 0.00 78 1012.1
20260502030002 12 20 4.8 12.9 0.00 0.00 0.00 42 1020.4
20260502024536 19 189 0.0 0.0 0.00 0.00 0.00 77 1011.8
20260502024502 12 337 4.8 9.7 0.00 0.00 0.00 43 1020.0
20260502023100 12 354 6.4 14.5 0.00 0.00 0.00 41 1019.6
20260502023035 19 153 0.0 0.0 0.00 0.00 0.00 78 1011.6
20260502021601 13 343 4.8 12.9 0.00 0.00 0.00 43 1019.5
20260502021535 20 153 0.0 0.0 0.00 0.00 0.00 77 1011.5
20260502020059 13 354 3.2 8.0 0.00 0.00 0.00 44 1019.2
20260502020033 20 144 0.0 0.0 0.00 0.00 0.00 76 1011.2
20260502014600 13 359 3.2 8.0 0.00 0.00 0.00 43 1019.1
20260502014535 20 130 0.0 0.0 0.00 0.00 0.00 74 1011.1
20260502013058 14 325 6.4 14.5 0.00 0.00 0.00 41 1018.7
20260502013032 20 156 0.0 0.0 0.00 0.00 0.00 72 1011.0
20260502011559 15 345 6.4 16.1 0.00 0.00 0.00 40 1018.5
20260502011531 20 122 0.0 0.0 0.00 0.00 0.00 72 1010.9
20260502010057 15 326 4.8 19.3 0.00 0.00 0.00 39 1018.3
20260502010042 20 171 0.0 0.0 0.00 0.00 0.00 72 1011.0
20260502004559 15 291 11.3 24.1 0.00 0.00 0.00 39 1018.1
20260502004547 20 155 0.0 0.0 0.00 0.00 0.00 72 1010.9
20260502003056 15 343 9.7 20.9 0.00 0.00 0.00 38 1017.8
20260502003029 20 160 0.0 0.0 0.00 0.00 0.00 72 1011.0
20260502001558 16 337 11.3 27.4 0.00 0.00 0.00 37 1017.7
20260502001533 21 142 0.0 0.0 0.00 0.00 0.00 71 1011.0
20260502000100 16 342 9.7 24.1 0.00 0.00 0.00 37 1017.7
20260502000030 21 178 0.0 0.0 0.00 0.00 0.00 70 1011.2
20260501234559 16 316 8.0 25.7 0.00 0.00 0.00 36 1017.6
20260501234526 21 168 0.0 0.0 0.00 0.00 0.00 70 1011.3
20260501233055 16 343 12.9 24.1 0.00 0.00 0.00 35 1017.5
20260501233026 21 152 0.0 0.0 0.00 0.00 0.00 68 1011.2
20260501231556 16 15 12.9 25.7 0.00 0.00 0.00 35 1017.5
20260501231524 22 214 0.0 0.0 0.00 0.00 0.00 68 1011.2
20260501230100 16 20 14.5 25.7 0.00 0.00 0.00 34 1017.4
20260501230023 22 169 0.0 0.0 0.00 0.00 0.00 68 1011.3
20260501224553 16 345 17.7 29.0 0.00 0.00 0.00 35 1017.4
20260501224520 22 136 0.0 0.0 0.00 0.00 0.00 66 1011.6
20260501223051 17 342 14.5 27.4 0.00 0.00 0.00 34 1017.5
20260501223022 22 195 0.0 0.0 0.00 0.00 0.00 66 1011.7
20260501221556 17 330 16.1 25.7 0.00 0.00 0.00 32 1017.5
20260501221517 23 143 0.0 0.0 0.00 0.00 0.00 65 1011.6
20260501220049 17 331 12.9 27.4 0.00 0.00 0.00 32 1017.5
20260501220016 22 134 0.0 0.0 0.00 0.00 0.00 65 1012.0
20260501214552 17 299 11.3 24.1 0.00 0.00 0.00 34 1017.7
20260501214515 23 167 0.0 0.0 0.00 0.00 0.00 64 1012.3
20260501213050 17 349 9.7 29.0 0.00 0.00 0.00 33 1017.9
20260501213025 23 161 0.0 0.0 0.00 0.00 0.00 65 1012.4
20260501211545 17 354 12.9 25.7 0.00 0.00 0.00 32 1018.2
20260501211508 22 154 0.0 0.0 0.00 0.00 0.00 66 1012.4
20260501210044 17 307 3.2 30.6 0.00 0.00 0.00 31 1018.3
20260501210015 22 144 0.0 0.0 0.00 0.00 0.00 67 1012.5
20260501204541 17 303 14.5 25.7 0.00 0.00 0.00 33 1018.6
20260501204505 22 153 0.0 1.6 0.00 0.00 0.00 65 1012.6
20260501203042 17 278 9.7 30.6 0.00 0.00 0.00 33 1018.8
20260501203003 23 127 0.0 1.6 0.00 0.00 0.00 65 1012.5
20260501201602 22 77 0.0 0.0 0.00 0.00 0.00 64 1012.6
20260501201537 16 278 4.8 22.5 0.00 0.00 0.00 39 1018.9
20260501200100 22 150 0.0 0.0 0.00 0.00 0.00 64 1012.5
20260501200041 16 347 22.5 32.2 0.00 0.00 0.00 37 1019.1
20260501194600 22 143 0.0 0.0 0.00 0.00 0.00 64 1012.7
20260501194540 17 354 17.7 35.4 0.00 0.00 0.00 37 1019.2
20260501193104 22 144 0.0 0.0 0.00 0.00 0.00 64 1012.9
20260501193039 17 305 8.0 22.5 0.00 0.00 0.00 36 1019.2
20260501191550 22 154 0.0 0.0 0.00 0.00 0.00 66 1013.1
20260501191548 17 66 3.2 20.9 0.00 0.00 0.00 36 1019.2
20260501190109 21 157 0.0 0.0 0.00 0.00 0.00 69 1013.4
20260501190044 16 258 11.3 30.6 0.00 0.00 0.00 34 1019.2
20260501184556 21 155 0.0 0.0 0.00 0.00 0.00 68 1013.8
20260501184532 17 272 11.3 17.7 0.00 0.00 0.00 35 1019.2
20260501183041 20 152 0.0 0.0 0.00 0.00 0.00 72 1014.0
20260501183031 17 348 11.3 25.7 0.00 0.00 0.00 36 1019.4